Regional Weather Roundup
Issued by NWS Wilmington, NC

Home | Current Version | Previous Version | Text Only | Print | Product List | Glossary On
Versions: 1 2 3 4 5 6 7 8 9 10 11 12 13 14 15 16 17 18 19 20 21 22 23 24 25 26 27 28 29 30 31 32 33 34 35 36 37 38 39 40 41 42 43 44 45 46 47 48 49 50
000
ASUS42 KILM 060713
RWRILM
RWRILM
REGIONAL HOURLY WEATHER ROUNDUP
NATIONAL WEATHER SERVICE WILMINGTON NC
300 AM EDT FRI MAY 06 2016

NOTE: "FAIR" INDICATES FEW OR NO CLOUDS BELOW 12,000 FEET WITH NO
SIGNIFICANT WEATHER AND/OR OBSTRUCTIONS TO VISIBILITY.

...............WFO WILMINGTON COUNTY WARNING AREA...............

......COASTAL NC AND SC COUNTIES......

CITY           SKY/WX    TMP DP  RH WIND       PRES   REMARKS
WILMINGTON     CLEAR     50  45  83 W9        29.67F
N MYRTLE BEACH PTCLDY    49  46  90 W6        29.70F
MYRTLE BEACH   CLEAR     50  39  66 W9        29.73S

......INLAND NC AND SC COUNTIES.......

CITY           SKY/WX    TMP DP  RH WIND       PRES   REMARKS
LUMBERTON      CLOUDY    52  45  77 NW8       29.68F
ELIZABETHTOWN  CLOUDY    49  46  89 CALM      29.68F
WHITEVILLE     NOT AVBL
FLORENCE       CLOUDY    52  46  80 NW7       29.72F
DARLINGTON     LGT RAIN  50  48  93 W7        29.72F FOG
KINGSTREE      FAIR      48  45  87 W7        29.73F
HARTSVILLE     CLOUDY    48  45  87 W3        29.72F
BENNETTSVILLE  CLOUDY    52  50  93 NW7       29.71F
CONWAY         FAIR      46  45  93 CALM      29.72S
GEORGETOWN     FAIR      48  43  81 W5        29.74F
MARION         MOCLDY    46  45  93 W5        29.71F

....................REST OF NORTH CAROLINA......................

.........EASTERN NC.........

CITY           SKY/WX    TMP DP  RH WIND       PRES   REMARKS
CAPE HATTERAS  CLOUDY    54  49  83 NW6       29.64S
JACKSONVILLE   MOCLDY    49  48  97 CALM      29.66F
MOREHEAD CITY  MOCLDY    54  51  90 W10       29.64F
KENANSVILLE    CLOUDY    51  46  86 CALM      29.67F
NEW BERN       CLOUDY    53  50  89 W8        29.66S
ELIZABETH CITY CLOUDY    50  49  96 W5        29.64S

.........CENTRAL NC.........

CITY           SKY/WX    TMP DP  RH WIND       PRES   REMARKS
RALEIGH DURHAM LGT RAIN  50  49  96 VRB3      29.66F FOG
ROCKY MOUNT    LGT RAIN  51  51 100 N9        29.64F FOG
ROANOKE RAPIDS NOT AVBL
FAYETTEVILLE   CLOUDY    51  45  79 W10       29.67F
HOFFMAN        CLOUDY    49  46  88 NW7       29.69F

.........WESTERN NC.........

CITY           SKY/WX    TMP DP  RH WIND       PRES   REMARKS
CHARLOTTE      CLOUDY    48  45  89 W7        29.73F
GREENSBORO     LGT RAIN  47  46  97 W6        29.68F
HICKORY        NOT AVBL
BOONE          NOT AVBL
ASHEVILLE      NOT AVBL

.....................REST OF SOUTH CAROLINA.....................

.........EASTERN SC.........

CITY           SKY/WX    TMP DP  RH WIND       PRES   REMARKS
CHARLESTON     PTCLDY    51  44  77 W5        29.75F
BEAUFORT MCAS  CLEAR     52  45  77 NW8       29.78F
HILTON HEAD    CLEAR     55  46  71 NW9       29.80S

.........CENTRAL SC.........

CITY           SKY/WX    TMP DP  RH WIND       PRES   REMARKS
COLUMBIA       CLOUDY    53  47  79 W9        29.75F
ORANGEBURG     CLOUDY    51  45  79 NW5       29.77F
SUMTER SHAW    CLOUDY    51  46  83 NW8       29.72F

.........WESTERN SC.........

CITY           SKY/WX    TMP DP  RH WIND       PRES   REMARKS
GREENVILLE     NOT AVBL
ROCK HILL      LGT RAIN  48  46  93 W6        29.75F
ANDERSON       PTCLDY    51  39  63 NW8       29.79F
CLEMSON        NOT AVBL
GREENWOOD      MOCLDY    49  42  77 W5        29.79F


...................COASTAL AND OFFSHORE REPORTS..................

................LOCAL PIERS AND NC RESERVE................


STATION/POSITION TIME  SKY/WX   TEMP    WIND        PRES    VSBY
                                AIR SEA DIR/SP/G
                 (UTC)          (F)     (DEG/KT/KT) (MB)    (MI)
JOHNY MRCER PIER 0600            52 69  280/  4/  8 1004.0F
NC RESRV MASNBRO NOT AVBL
OCEAN CREST PIER NOT AVBL
SPRINGMAID  PIER 0600            52 70  250/  4/  6 1005.8F


................COASTAL AND OFFSHORE BUOYS................


STATION/POSITION TIME  SKY/WX   TEMP    WIND        PRES    VSBY
                                AIR SEA DIR/SP/G
                 (UTC)          (F)     (DEG/KT/KT) (MB)    (MI)
DIMNDSHOAL 41025 0650            55 77  340/ 10/ 14 1003.4F
WVE H/P(F/S)=  4/ 8 SWL H/P/D(F/S/D)=  5/ 50/ 8

CAPE LOOKOUT     0700            56     260/  1/  4 1003.4F
ONSLOW BAY 41036 NOT AVBL
ONSLOW BAY 41064 NOT AVBL
ONSLOW BAY 41159 0625               72                N/A
WVE H/P(F/S)=  5/ 7

5SE WRITBC 41038 0608            55 69  300/ 14/ 21 1005.7F
MASNBO INL 41110 0606               69                N/A
WVE H/P(F/S)=  2/ 7

WILM HARBR 41108 0626               70                N/A
WVE H/P(F/S)=  3/ 7

27SE WRITB 41037 0608            58 72  310/ 14/ 21 1004.2F
FRYING PAN 41013 0600            62 72  290/ 14/ 19 1005.0F
SUNST NRSH 41024 0608            54 69  310/ 14/ 17 1005.1F
CAPRS NRSH 41029 0608            56 70  340/ 16/ 21 1007.5R
EDISTO     41004 0650            61 73  310/ 17/ 23 1006.1F
WVE H/P(F/S)=  5/ 7



..........OFFSHORE BUOYS BEYOND 100 NM OFFSHORE...........
.....IN A TRIANGLE---HAT TO BERMUDA TO BAHAMAS TO HAT.....


STATION/POSITION TIME  SKY/WX   TEMP    WIND        PRES    VSBY
                                AIR SEA DIR/SP/G
                 (UTC)          (F)     (DEG/KT/KT) (MB)    (MI)
150E HAT   41001 NOT AVBL
W BERMUDA  41048 0650            70 70  180/  8/ 10 1006.7F
WVE H/P(F/S)=  9/ 9 SWL H/P/D(F/S/D)=  8/170/ 9

ATLANTIC S 41049 0650            76 76  140/ 21/ 25 1014.9F
WVE H/P(F/S)=  7/ 7 SWL H/P/D(F/S/D)=  2/ 70/11

E BAHAMAS  41046 0650            80 80  180/ 14/ 17 1011.5S
WVE H/P(F/S)=  6/ 7 SWL H/P/D(F/S/D)=  5/140/ 7

NE BAHAMAS 41047 0650            75 77  300/  8/ 10 1008.4F
WVE H/P(F/S)=  7/ 8 SWL H/P/D(F/S/D)=  7/170/ 8

120E CANVRL41010 0620            68 78  350/  4/  8 1008.0F

END



USA.gov is the U.S. government's official web portal to all federal, state and local government web resources and services.